Location: Harbor Isle
(40.6034°N, 73.6646°W)
Time: 13:04:37
(UTC+00:00)

Daily predictions for brighter satellites

Satellite Brightness Start Highest point End
(mag) Time Altitude Azimuth Time Altitude Azimuth Time Altitude Azimuth
Cosmos 1634 Rocket 4.4 21:46:22 10° NNW 21:52:31 72° W 21:58:40 10° S
Radarsat Rocket 4.1 21:46:17 10° SSE 21:52:38 90° WSW 21:58:32 10° NNW
ATLAS 2AS CENTAUR R/B 4.0 21:47:52 10° WSW 21:55:22 44° NW 22:02:57 10° NNE
SL-8 R/B 4.0 21:52:15 10° WNW 21:57:03 74° SSW 22:01:52 10° SE
Feng Yun 1-1 Rocket 4.4 21:52:06 10° SE 21:57:17 49° ENE 22:02:28 10° N
Cosmos 2251 Rocket 3.9 21:52:29 10° S 21:57:31 46° ESE 22:02:33 10° NNE
Cosmos 1980 4.2 21:53:29 10° S 21:58:41 40° ESE 22:03:55 10° NE
Lacrosse 5 rocket 1.4 21:54:28 10° SW 21:58:51 87° NW 22:03:00 10° NE
PSLV R/B 3.9 21:58:40 10° NNE 22:02:50 84° ESE 22:06:57 10° SSW
Nadezhda 4 Rocket 4.3 21:57:45 10° SSE 22:03:44 47° E 22:09:43 10° NNE
IRS-1C Rocket 4.1 21:59:37 10° SSE 22:04:49 63° ENE 22:10:02 10° N
ISS -2.6 22:04:00 10° NW 22:06:55 26° NNE 22:09:50 10° E
SL-4 R/B 3.1 22:04:44 10° W 22:08:03 31° NNW 22:11:38 10° NE
Cosmos 1733 Rocket 3.1 22:07:15 10° N 22:11:34 56° E 22:15:53 10° SSE
STARLINK-60 4.0 22:09:16 10° SSW 22:12:21 34° SE 22:15:02 13° ENE
COSMOS 2428 3.2 22:08:27 10° SW 22:14:03 63° WNW 22:19:43 10° NNE
Envisat 3.5 22:12:19 10° SE 22:16:58 38° ENE 22:21:38 10° N
CZ-4B R/B 4.5 22:17:50 10° NW 22:19:18 12° WNW 22:20:45 10° W
Meteor 1-5 Rocket 4.1 22:15:51 10° N 22:21:24 80° E 22:26:46 10° SSE
Cosmos 1666 3.8 22:18:47 10° NNE 22:21:48 23° ENE 22:24:47 10° SE
Aureole 1 Rocket 3.6 22:21:05 10° SSE 22:23:22 20° ESE 22:24:25 17° ENE
Radarsat 4.5 22:18:16 10° SSE 22:23:26 73° ENE 22:28:38 10° N
CENTAUR R/B 4.4 22:19:05 10° NW 22:26:55 48° WSW 22:35:09 10° S
USA 215 4.3 22:22:19 10° NE 22:28:07 35° NNW 22:33:54 10° W
Exosat Rocket 3.7 22:28:00 10° SSW 22:33:36 78° WNW 22:38:36 10° NNE
Cosmos 1992 Rocket 4.0 22:28:56 10° NNW 22:34:06 58° ENE 22:39:15 10° SSE
SMAP 3.4 22:32:18 10° S 22:36:56 70° WSW 22:41:36 10° NNW
SKYMED 2 4.0 22:33:49 10° NNE 22:37:56 41° E 22:42:02 10° S
Cosmos 921 Rocket 4.5 22:38:22 10° NNE 22:40:26 18° NE 22:40:26 18° NE
BREEZE-M R/B 4.3 22:37:35 10° WNW 22:42:01 24° NNW 22:43:49 17° NNE
COBE Rocket 4.2 22:37:40 10° N 22:42:16 64° WNW 22:46:54 10° SSW
Cosmos 1862 Rocket 4.1 22:41:47 10° SSW 22:46:04 60° W 22:50:24 10° N
Cosmos 2278 Rocket 2.2 22:42:46 10° NNW 22:48:28 89° ENE 22:54:07 10° SSE
Cosmos 1703 Rocket 3.8 22:44:32 10° SSE 22:48:49 48° E 22:52:45 12° NNE
Cosmos 2242 Rocket 3.6 22:44:38 10° S 22:49:11 88° E 22:53:47 10° N
Cosmos 1812 3.9 22:46:54 10° SSW 22:50:36 45° W 22:54:20 10° N
FALCON 9 DEB 3.2 22:48:00 10° SW 22:51:27 62° SE 22:52:40 35° ENE
Shenzhou-11 Module 1.9 22:52:34 10° WNW 22:55:15 51° N 22:55:27 49° NNE
Okean-O 2.8 22:53:08 10° S 22:57:33 76° WSW 23:02:00 10° NNW
NOSS 0 Rocket 4.5 22:53:05 10° SW 22:59:10 58° WNW 23:05:20 10° NNE
SL-16 R/B 2.5 22:54:43 10° S 23:00:04 45° ESE 23:02:49 26° NE
USA 267 3.9 22:54:41 10° SSE 23:01:06 57° SW 23:07:32 10° NW
Cosmos 2195 Rocket 4.4 22:56:33 10° S 23:02:40 71° E 23:08:56 10° NNE
Cosmos 292 Rocket 3.7 23:00:23 10° NNW 23:05:14 62° ENE 23:10:01 10° SSE
Cosmos 2333 Rocket 4.2 23:01:23 10° WSW 23:06:03 25° NW 23:10:44 10° N
Cosmos 1092 Rocket 4.0 23:03:09 10° S 23:09:28 84° W 23:15:47 10° N
OAO 3 Rocket 4.0 23:05:16 10° WSW 23:09:41 40° S 23:11:34 28° SE
STARLINK-52 3.0 23:08:18 10° SW 23:11:48 76° SE 23:12:07 68° E
Cosmos 2237 Rocket 2.9 23:06:22 10° SW 23:11:56 55° WNW 23:17:21 11° NNE
YAOGAN 6 2.6 23:10:31 10° S 23:14:01 78° WSW 23:17:36 10° NNW
Cosmos 1190 Rocket 4.1 23:12:29 10° S 23:17:29 50° ESE 23:18:35 42° ENE
STARLINK-29 3.1 23:16:29 10° SW 23:19:59 80° NW 23:20:06 78° N
Cosmos 1908 Rocket 4.1 23:19:33 10° NNW 23:23:53 58° W 23:28:09 10° S
Cosmos 1536 4.5 23:21:32 10° NNW 23:25:11 34° W 23:28:49 10° SSW
COSMO-SKYMED 1 3.2 23:22:02 12° N 23:25:57 56° WNW 23:30:11 10° SSW
Cosmos 1441 Rocket 3.1 23:23:26 10° N 23:27:16 86° W 23:31:02 10° S
YAOGAN 1 2.4 23:27:06 10° SSE 23:31:25 89° WSW 23:35:46 10° NNW
USA 116 4.4 23:27:53 15° N 23:32:22 82° WNW 23:37:28 10° SSW
CZ-4 R/B 1.7 23:28:36 10° S 23:32:30 63° W 23:36:22 10° NNW
OAO 2 Rocket 3.9 23:31:27 10° WSW 23:36:14 45° S 23:37:08 41° SSE
Lacrosse 5 rocket 3.5 23:35:40 10° WNW 23:38:30 17° NNW 23:39:14 16° NNW
ISS -2.1 23:40:32 10° WNW 23:42:52 35° W 23:42:52 35° W
Okean 1-7 4.0 23:40:19 10° SSW 23:44:27 46° W 23:46:52 23° NNW
Meteor 1-18 Rocket 4.2 23:39:29 10° S 23:45:15 86° W 23:48:09 31° N
Okean 1 3.7 23:41:35 10° SSW 23:45:07 59° WSW 23:45:07 59° WSW
Cosmos 1943 Rocket 4.1 23:42:47 10° N 23:44:04 16° N 23:44:04 16° N
CSL-04 Rocket 3.8 23:43:23 10° S 23:48:37 68° WSW 23:53:54 10° NNW
SL-4 R/B 4.3 23:46:00 10° NW 23:47:31 16° NNW 23:47:31 16° NNW
Cosmos 2297 3.6 23:44:35 10° NNW 23:50:19 87° ENE 23:51:40 55° SSE
Cosmos 1174 4.5 23:46:31 10° SW 23:51:45 61° WNW 23:51:58 60° NW
